sat.trackr.live / text

‹ back to catalog

STARLINK-37484

NORAD 69527 · 2026-133V

PAYLOAD ACTIVE UNKNOWN

§ Identity

Operator
Country
US
Launch date
2026-06-12
Launch site
AFETR
Launch vehicle
Mass (kg)
RCS (m²)

Purposes: comms

External: N2YO · Heavens-Above · Gunter

§ Orbital elements

Epoch: 2026-09-19T11:57:24.244992Z

Period
93.85 min
Inclination
53.1563°
Eccentricity
0.0001336
Mean motion
15.34395947 rev/d
Perigee alt
461.8 km
Apogee alt
463.6 km
Semi-major
6,840.9 km
B*
7.9786e-4
RAAN
234.1397°
Arg perigee
94.1291°
Mean anomaly
265.9864°
Rev number
1,535

§ Raw data

STARLINK-374841 69527U 26133V   26262.49819728  .00026673  00000+0  79786-3 0  99932 69527  53.1563 234.1397 0001336  94.1291 265.9864 15.34395947 15356

JSON: /api/v1/satellites/69527 · /tle

For live sub-satellite position, see the globe view (requires WebGL).

§ Visibility from observer

Set your observer location to see the next 7 days of passes ≥ 10°. The values pass through the URL so the page stays shareable.

No JS? Fill the form by hand. The geolocation button needs JavaScript.